Regional Weather Roundup
Issued by NWS

Home | Current Version | Previous Version | Text Only | Print | Product List | Glossary Off
Versions: 1 2 3 4 5 6 7 8 9 10 11 12 13 14 15 16 17 18 19 20 21 22 23 24 25 26 27

000
ASUS45 KTFX 231410
RWRMT
MONTANA REGIONAL WEATHER ROUNDUP
NATIONAL WEATHER SERVICE GREAT FALLS MT
700 AM MST THU FEB 23 2017

NOTE: "FAIR" INDICATES FEW OR NO CLOUDS BELOW 12000 FEET WITH NO
SIGNIFICANT WEATHER AND/OR OBSTRUCTIONS TO VISIBILITY.

MTZ001>007-043-231500-
WEST OF THE DIVIDE

CITY           SKY/WX    TMP DP  RH WIND       PRES   REMARKS
KALISPELL      CLOUDY    26  21  81 VRB6      29.95S WCI  19
MISSOULA       CLOUDY    29  27  92 CALM      29.93S
BUTTE          CLOUDY    24  15  68 N7        29.79R WCI  16
MULLAN PASS    CLOUDY    18  14  84 NW6       29.83R FOG     WCI  10
ANACONDA         N/A     25  16  68 N10       29.83S WCI  15
DEER LODGE       N/A     27  18  69 N10       29.88S WCI  17
EUREKA           N/A     23  21  93 CALM      30.02R
HAMILTON         N/A     28  25  86 N7          N/A  WCI  21
LIBBY            N/A     21  19  93 CALM      30.01S
PLAINS           N/A     25  19  77 CALM      29.99R
RONAN            N/A     23  19  85 CALM      29.98R
$$

MTZ008-052>055-231500-
SOUTHWEST MONTANA

CITY           SKY/WX    TMP DP  RH WIND       PRES   REMARKS
BOZEMAN        CLOUDY    27  20  75 S5        29.81S
DILLON         CLOUDY    24  18  77 N21G31    29.73R WCI   9
W YELLOWSTONE  CLOUDY    19  14  79 N10       29.67S WCI   8
ENNIS          MOCLDY    23  19  86 NW20G29   29.77S WCI   8
THREE FORKS      N/A     30 -34   5 N7        29.83F WCI  23
$$

MTZ009-010-012-014-046-048-049-054-231500-
EAST SLOPES AND CENTRAL MONTANA

CITY           SKY/WX    TMP DP  RH WIND       PRES   REMARKS
CUT BANK       CLOUDY    20  17  88 N9        29.99S WCI   9
GREAT FALLS    CLOUDY    26  23  88 NE12      29.95R WCI  16
MALMSTROM AFB  CLOUDY    27  27 100 NE12      29.97R WCI  16
HELENA         CLOUDY    30  22  72 NW8       29.89S WCI  22
AUGUSTA        SNOWSHWR  23  23 100 NE10      29.92S VSB 1/2 WCI  13
BOWMANS CRNR   LGTSLEET  23  23  99 NE15      29.90S WCI  10
CHOTEAU          N/A     25  25 100 N13       29.98R FOG     WCI  13
CONRAD           N/A     25  24  96 N6        30.00S WCI  18
POWER          SNOWSHWR  25  24  98 NE9       29.95S FOG     WCI  15
RAYNESFORD     FLURRIES  26  25  96 CALM      29.93S
ULM            FLURRIES  26  25  94 MISG      29.95R
$$

MTZ011-013-016-021-045-047-050-051-231500-
NORTH CENTRAL MONTANA

CITY           SKY/WX    TMP DP  RH WIND       PRES   REMARKS
HAVRE          CLOUDY    24  21  88 NE12      30.04R WCI  13
LEWISTOWN      LGT SNOW  22  20  92 E9        29.90S FOG     WCI  12
N BAR RANCH    CLOUDY    23  21  93 NE7       29.91S FOG     WCI  15
CHINOOK          N/A     27  21  80 E5        30.05S
DENTON         FLURRIES  24  23  98 E13       29.92S WCI  12
FORT BENTON      N/A     27  23  86 CALM      30.01S
GEYSER         FLURRIES  24  23  96 NE10      29.93R WCI  13
GRASS RANGE    FLURRIES  23  23  99 NE9       29.90S WCI  13
JUDITH GAP     LGT SNOW  22  21  94 N18       29.87R VSB 5/8 WCI   8
ROY            FLURRIES  23  23  99 MISG      29.94S
STANFORD       FLURRIES  22  22  98 NE10      29.91R WCI  11
WINIFRED       FLURRIES  24  24  99 NE9       29.94S WCI  14
$$

MTZ017>020-022>027-061-062-231500-
NORTHEAST MONTANA

CITY           SKY/WX    TMP DP  RH WIND       PRES   REMARKS
GLASGOW        LGT SNOW  27  26  96 CALM      30.02S FOG
JORDAN           N/A     23  20  88 N8        29.98F WCI  14
SIDNEY         CLOUDY    24  22  91 CALM      30.01F
WOLF POINT     CLOUDY    25  22  88 NW6       30.03F FOG     WCI  18
PLENTYWOOD       N/A     23  21  93 NE15      30.04R VSB 1/2 WCI  10
POPLAR           N/A     27  25  93 NW5       30.03F
SCOBEY           N/A     24  17  74 N10       30.02R WCI  14
$$

MTZ028>42-056>058-231500-
SOUTHCENTRAL AND SOUTHEAST MONTANA

CITY           SKY/WX    TMP DP  RH WIND       PRES   REMARKS
BAKER          CLOUDY    26  22  84 E13       29.95R WCI  15
BILLINGS       CLOUDY    28  26  92 NE9       29.89S WCI  19
LIVINGSTON     LGT SNOW  26  23  88 E14       29.82R FOG     WCI  14
MILES CITY     CLOUDY    29  25  85 NE9       29.95S WCI  20
BIG TIMBER     FOG       27  27 100 E6        29.88R VSB 1   WCI  20
EKALAKA          N/A     25  22  88 NE8       29.87F WCI  16
FORSYTH          N/A     28  27  93 NE6       29.94S WCI  22
HARLOWTON      FLURRIES  24  22  91 N22       29.86F WCI   9
LAUREL           N/A     27  23  84 CALM      29.87F
$$

REGIONAL REPORTS...DAKOTAS

CITY           SKY/WX    TMP DP  RH WIND       PRES   REMARKS
WILLISTON      CLOUDY    28  25  88 N16       30.03R WCI  16
MINOT          CLOUDY    27  22  81 N17       30.03R WCI  14
DICKINSON      CLOUDY    25  23  92 N6        29.95S FOG     WCI  18
BEACH            N/A    N/A N/A N/A MISG        N/A
CROSBY         LGT SNOW  23  23 100 N13       30.09R WCI  11
TIOGA          CLOUDY    25  25 100 NE18      30.02S WCI  11
WATFORD CITY     N/A     23  23 100 SW5       30.00F FOG
BISMARCK       CLOUDY    28  25  88 N5        30.02R
GRAND FORKS    CLOUDY    29  21  72 N7        30.05S WCI  22
FARGO          CLOUDY    30  23  75 N10       30.03R WCI  21
BUFFALO SD       N/A     27  25  92 NE12      29.85R WCI  17
RAPID CITY     LGT SNOW  26  24  92 NE14      29.86S FOG     WCI  14
$$

REGIONAL REPORTS...WYOMING/IDAHO/WASHINGTON

CITY           SKY/WX    TMP DP  RH WIND       PRES   REMARKS
GILLETTE         N/A     27  24  89 NE16      29.77F WCI  15
SHERIDAN       CLOUDY    28  26  92 NE9       29.83S WCI  19
BUFFALO WY     CLOUDY    26  22  84 N12       29.77F WCI  16
CODY           FLURRIES  24  21  88 N20G25    29.76F WCI  10
YELLOWSTONE LA   N/A     14   7  73 VRB5      29.64R
IDAHO FALLS    LGT SNOW  27  26  96 S9        29.64R FOG     WCI  18
SALMON         CLOUDY    30  23  74 CALM      29.74S
BOISE          CLOUDY    31  23  72 NW21      29.83S WCI  18
SPOKANE        FOG       24  23  96 NW3       30.03S VSB 1/8
$$

REGIONAL REPORTS...ALBERTA

CITY           SKY/WX    TMP DP  RH WIND       PRES   REMARKS
EDMONTON       CLOUDY    21  18  86 N2        30.07S
CALGARY        LGT SNOW  19  18  93 S3        30.02S FOG
LETHBRIDGE     FLURRIES  23  23 100 E5        30.06S
MEDICINE HAT   LGT SNOW  14  12  92 S6        30.11S FOG     WCI   5
WATERTON GATE    N/A     18  16  93 N3          N/A
CARDSTON         N/A     19  19 100 SE2         N/A
MILK RIVER       N/A     19  18  93 NE7         N/A  WCI  10
$$

REGIONAL REPORTS...SASKATCHEWAN

CITY           SKY/WX    TMP DP  RH WIND       PRES   REMARKS
SWIFT CURRENT  CLEAR     18  14  86 CALM      30.06R
REGINA         PTCLDY    19  16  86 SW5       30.09R
SASKATOON      CLOUDY    19  14  79 NW9       30.10R WCI   9
CYPRESS HILLS    N/A     14  10  85 NE8         N/A  WCI   3
VAL MARIE        N/A     25  21  86 NE10        N/A  WCI  15
ROCKGLEN         N/A     19  18  93 NE6         N/A  WCI  11
ASSINIBOIA       N/A     21  19  93 N5          N/A
$$




USA.gov is the U.S. government's official web portal to all federal, state and local government web resources and services.